GW5072 Weather Reports


time (UTC)temp
F
wind
direction
speed
knots
gust
knots
rain 1hr
in
rain 24hr
in
rain mn
in
humidity
%
barometer
mb
20260831015005 86 79 0.0 0.0 0.00 0.00 0.00 65 1013.9
20260831014529 86 79 0.0 0.0 0.00 0.00 0.00 64 1013.9
20260831014007 86 79 0.0 0.9 0.00 0.00 0.00 63 1013.9
20260831013514 87 79 0.0 0.9 0.00 0.00 0.00 62 1013.9
20260831013028 87 79 0.0 0.0 0.00 0.00 0.00 60 1013.9
20260831012505 88 79 0.0 0.0 0.00 0.00 0.00 59 1013.8
20260831012014 88 79 0.0 0.0 0.00 0.00 0.00 58 1013.8
20260831011533 89 79 0.0 0.0 0.00 0.00 0.00 58 1013.7
20260831011005 89 78 0.0 0.9 0.00 0.00 0.00 56 1013.6
20260831010514 89 78 0.0 0.9 0.00 0.00 0.00 57 1013.8
20260831010018 89 78 0.0 0.9 0.00 0.00 0.00 56 1013.8
20260831005516 90 89 0.0 0.9 0.00 0.00 0.00 55 1013.6
20260831005015 90 89 0.0 0.9 0.00 0.00 0.00 55 1013.6
20260831004516 91 89 0.0 0.0 0.00 0.00 0.00 56 1013.7
20260831004018 91 89 0.0 0.0 0.00 0.00 0.00 54 1013.6
20260831003510 92 89 0.0 0.0 0.00 0.00 0.00 53 1013.6
20260831003036 92 96 0.0 0.0 0.00 0.00 0.00 52 1013.6
20260831002511 92 92 0.0 0.9 0.00 0.00 0.00 52 1013.5
20260831002007 93 93 0.0 0.9 0.00 0.00 0.00 51 1013.5
20260831001529 93 107 0.0 0.9 0.00 0.00 0.00 50 1013.5
20260831001012 93 103 0.0 0.9 0.00 0.00 0.00 50 1013.6
20260831000507 94 124 0.0 0.9 0.00 0.00 0.00 48 1013.4
20260831000032 94 103 0.0 0.9 0.00 0.00 0.00 47 1013.4
20260830235512 94 164 0.0 0.0 0.00 0.00 0.00 45 1013.5
20260830235017 95 164 0.0 0.9 0.00 0.00 0.00 44 1013.4
20260830234537 95 207 0.0 0.9 0.00 0.00 0.00 45 1013.4
20260830234007 96 220 0.0 0.9 0.00 0.00 0.00 43 1013.5
20260830233514 96 114 0.0 1.7 0.00 0.00 0.00 43 1013.6
20260830233027 97 221 0.0 2.6 0.00 0.00 0.00 42 1013.5
20260830232508 97 143 0.0 2.6 0.00 0.00 0.00 44 1013.5
20260830232014 97 219 0.0 3.5 0.00 0.00 0.00 44 1013.5
20260830231522 97 78 0.0 3.5 0.00 0.00 0.00 43 1013.4
20260830231016 98 141 0.0 1.7 0.00 0.00 0.00 44 1013.6
20260830230515 98 214 0.0 1.7 0.00 0.00 0.00 42 1013.6
20260830230022 98 87 0.0 1.7 0.00 0.00 0.00 42 1013.5
20260830225515 99 219 0.0 1.7 0.00 0.00 0.00 41 1013.6
20260830225012 99 220 0.0 2.6 0.00 0.00 0.00 42 1013.6
20260830224529 99 255 0.0 2.6 0.00 0.00 0.00 41 1013.6
20260830224017 98 79 0.0 0.9 0.00 0.00 0.00 45 1013.6
20260830223514 98 63 0.0 0.9 0.00 0.00 0.00 44 1013.7
20260830223032 98 68 0.0 0.9 0.00 0.00 0.00 43 1013.7
20260830222513 98 96 0.0 1.7 0.00 0.00 0.00 43 1013.7
20260830222010 99 65 0.0 1.7 0.00 0.00 0.00 42 1013.6
20260830221543 100 115 0.0 1.7 0.00 0.00 0.00 42 1013.7
20260830221012 100 112 0.0 1.7 0.00 0.00 0.00 42 1013.7
20260830220519 100 43 0.0 0.9 0.00 0.00 0.00 44 1013.8
20260830220031 99 236 0.0 1.7 0.00 0.00 0.00 44 1013.8
20260830215513 98 45 0.9 2.6 0.00 0.00 0.00 43 1013.7
20260830215017 98 255 0.0 2.6 0.00 0.00 0.00 44 1013.8
20260830214528 98 232 0.0 1.7 0.00 0.00 0.00 44 1013.9
20260830214013 97 18 0.0 1.7 0.00 0.00 0.00 44 1014.0
20260830213516 98 90 0.0 1.7 0.00 0.00 0.00 44 1013.9
20260830213028 99 72 0.9 3.5 0.00 0.00 0.00 43 1013.9
20260830212519 100 120 0.9 3.5 0.00 0.00 0.00 43 1014.1
20260830212016 100 94 0.0 2.6 0.00 0.00 0.00 43 1014.1
20260830211504 100 85 0.0 2.6 0.00 0.00 0.00 44 1014.0
20260830211004 100 90 0.0 1.7 0.00 0.00 0.00 44 1014.2
20260830210503 100 120 0.0 1.7 0.00 0.00 0.00 43 1014.2
20260830210003 100 97 0.0 2.6 0.00 0.00 0.00 44 1014.3
20260830205503 101 207 0.0 2.6 0.00 0.00 0.00 43 1014.2
20260830205004 101 226 0.0 3.5 0.00 0.00 0.00 41 1014.5
20260830204508 101 96 0.9 3.5 0.00 0.00 0.00 42 1014.5
20260830204002 101 220 0.0 3.5 0.00 0.00 0.00 42 1014.5
20260830203502 101 113 0.0 2.6 0.00 0.00 0.00 42 1014.6
20260830203008 101 151 0.0 1.7 0.00 0.00 0.00 43 1014.6
20260830202502 100 233 0.0 1.7 0.00 0.00 0.00 45 1014.7
20260830202002 100 96 0.0 1.7 0.00 0.00 0.00 44 1014.7
20260830201507 100 231 0.0 1.7 0.00 0.00 0.00 44 1014.9
20260830201001 100 117 0.0 1.7 0.00 0.00 0.00 44 1014.9
20260830200501 99 108 0.0 1.7 0.00 0.00 0.00 45 1015.0
20260830200017 99 134 0.0 2.6 0.00 0.00 0.00 44 1015.1
20260830195502 98 117 0.0 3.5 0.00 0.00 0.00 47 1015.3
20260830195005 99 68 1.7 3.5 0.00 0.00 0.00 45 1015.4
20260830194505 98 154 0.0 2.6 0.00 0.00 0.00 46 1015.6
20260830194002 98 93 1.7 7.0 0.00 0.00 0.00 45 1015.7
20260830193501 99 122 0.9 7.0 0.00 0.00 0.00 44 1015.8
20260830193003 100 56 0.0 1.7 0.00 0.00 0.00 44 1015.8
20260830192501 100 81 0.0 3.5 0.00 0.00 0.00 44 1015.9
20260830192001 99 181 0.0 3.5 0.00 0.00 0.00 43 1015.9
20260830191503 98 158 0.0 1.7 0.00 0.00 0.00 46 1015.9
20260830191005 97 317 0.0 1.7 0.00 0.00 0.00 50 1016.0
20260830190503 96 341 0.0 1.7 0.00 0.00 0.00 50 1016.1
20260830190030 97 79 0.0 2.6 0.00 0.00 0.00 50 1016.1
20260830185506 97 103 0.9 2.6 0.00 0.00 0.00 50 1016.2
20260830185003 96 128 0.0 1.7 0.00 0.00 0.00 50 1016.2
20260830184512 96 143 0.9 1.7 0.00 0.00 0.00 50 1016.3
20260830184005 96 69 0.0 1.7 0.00 0.00 0.00 50 1016.4
20260830183501 96 278 0.0 4.3 0.00 0.00 0.00 49 1016.6
20260830183012 98 189 1.7 4.3 0.00 0.00 0.00 48 1016.7
20260830182505 97 244 0.0 3.5 0.00 0.00 0.00 49 1016.7
20260830182007 97 225 0.0 3.5 0.00 0.00 0.00 51 1016.8
20260830181510 97 103 0.9 2.6 0.00 0.00 0.00 49 1016.8
20260830181002 97 280 0.0 0.9 0.00 0.00 0.00 51 1017.0
20260830180511 96 232 0.0 2.6 0.00 0.00 0.00 53 1017.0
20260830180009 94 243 0.0 2.6 0.00 0.00 0.00 54 1017.1
20260830175505 95 97 0.0 3.5 0.00 0.00 0.00 55 1017.2
20260830175007 94 212 0.9 3.5 0.00 0.00 0.00 55 1017.3
20260830174510 94 141 0.0 1.7 0.00 0.00 0.00 55 1017.4
20260830174006 95 118 0.0 0.9 0.00 0.00 0.00 52 1017.4
20260830173503 94 126 0.0 0.9 0.00 0.00 0.00 55 1017.5
20260830173003 94 276 0.0 2.6 0.00 0.00 0.00 54 1017.7
20260830172508 93 262 0.0 2.6 0.00 0.00 0.00 57 1017.7
20260830172003 92 203 0.0 2.6 0.00 0.00 0.00 58 1017.6
20260830171516 93 59 0.0 2.6 0.00 0.00 0.00 58 1017.7
20260830171006 94 274 0.9 2.6 0.00 0.00 0.00 57 1017.7
20260830170503 93 229 0.0 2.6 0.00 0.00 0.00 58 1017.6
20260830170015 93 146 0.0 2.6 0.00 0.00 0.00 59 1017.8
20260830165505 92 245 0.9 2.6 0.00 0.00 0.00 59 1017.8
20260830165003 92 183 0.0 2.6 0.00 0.00 0.00 63 1017.8
20260830164516 91 243 0.0 0.9 0.00 0.00 0.00 66 1017.9
20260830164006 90 300 0.0 0.9 0.00 0.00 0.00 65 1017.9
20260830163508 89 208 0.0 0.9 0.00 0.00 0.00 66 1017.8
20260830163014 89 217 0.0 0.9 0.00 0.00 0.00 70 1017.9
20260830162504 88 215 0.0 1.7 0.00 0.00 0.00 70 1017.8
20260830162007 88 228 0.0 1.7 0.00 0.00 0.00 71 1017.9
20260830161511 87 228 0.0 1.7 0.00 0.00 0.00 71 1018.0
20260830161004 87 205 0.0 1.7 0.00 0.00 0.00 71 1017.9
20260830160509 88 155 0.0 0.9 0.00 0.00 0.00 72 1018.0
20260830160008 88 214 0.0 0.9 0.00 0.00 0.00 71 1018.0
20260830155507 87 209 0.0 0.9 0.00 0.00 0.00 73 1018.0
20260830155007 86 245 0.0 0.9 0.00 0.00 0.00 77 1018.1
20260830154507 86 100 0.0 0.9 0.00 0.00 0.00 76 1018.0
20260830154009 86 209 0.0 0.0 0.00 0.00 0.00 77 1017.9
20260830153505 85 199 0.0 3.5 0.00 0.00 0.00 78 1018.0
20260830153020 85 200 0.0 3.5 0.00 0.00 0.00 79 1017.9
20260830152511 84 352 0.0 0.9 0.00 0.00 0.00 81 1017.9
20260830152007 84 271 0.0 1.7 0.00 0.00 0.00 81 1017.9
20260830151518 84 233 0.0 1.7 0.00 0.00 0.00 83 1017.8
20260830151008 83 206 0.0 2.6 0.00 0.00 0.00 85 1017.8
20260830150505 83 252 0.0 2.6 0.00 0.00 0.00 83 1017.8
20260830150020 83 252 0.0 0.9 0.00 0.00 0.00 84 1017.8
20260830145506 82 224 0.0 0.9 0.00 0.00 0.00 84 1017.9
20260830145010 82 215 0.0 0.9 0.00 0.00 0.00 86 1017.9
20260830144520 82 212 0.0 0.9 0.00 0.00 0.00 89 1017.9
20260830144006 81 220 0.0 0.9 0.00 0.00 0.00 90 1017.8
20260830143512 80 219 0.0 1.7 0.00 0.00 0.00 91 1017.9
20260830143016 80 136 0.0 2.6 0.00 0.00 0.00 92 1017.9
20260830142503 80 215 0.0 2.6 0.00 0.00 0.00 93 1017.9
20260830142013 79 211 0.0 0.9 0.00 0.00 0.00 94 1017.9
20260830141514 79 211 0.0 0.9 0.00 0.00 0.00 95 1017.9
20260830141011 79 211 0.0 0.0 0.00 0.00 0.00 95 1017.9
20260830140515 78 196 0.0 0.0 0.00 0.00 0.00 96 1017.8
20260830140008 78 232 0.0 0.9 0.00 0.00 0.00 96 1017.8
20260830135513 78 223 0.0 0.9 0.00 0.00 0.00 96 1017.8
20260830135006 78 207 0.0 1.7 0.00 0.00 0.00 96 1017.8
20260830134531 77 207 0.0 1.7 0.00 0.00 0.00 97 1017.8
20260830134013 77 251 0.0 0.0 0.00 0.00 0.00 97 1017.7
20260830133508 77 251 0.0 0.0 0.00 0.00 0.00 97 1017.7
20260830133025 76 251 0.0 0.0 0.00 0.00 0.00 97 1017.7
20260830132509 76 251 0.0 0.0 0.00 0.00 0.00 97 1017.6
20260830132004 75 251 0.0 0.0 0.00 0.00 0.00 97 1017.6
20260830131529 75 250 0.0 0.0 0.00 0.00 0.00 96 1017.6
20260830131007 75 251 0.0 0.0 0.00 0.00 0.00 96 1017.6
20260830130513 74 251 0.0 0.0 0.00 0.00 0.00 96 1017.4
20260830130037 74 251 0.0 0.0 0.00 0.00 0.00 96 1017.4
20260830125503 74 251 0.0 0.0 0.00 0.00 0.00 96 1017.5
20260830125012 74 251 0.0 0.0 0.00 0.00 0.00 96 1017.4
20260830124522 73 250 0.0 0.0 0.00 0.00 0.00 96 1017.4
20260830124003 73 251 0.0 0.0 0.00 0.00 0.00 96 1017.3
20260830123513 73 251 0.0 0.0 0.00 0.00 0.00 96 1017.2
20260830123016 73 251 0.0 0.0 0.00 0.00 0.00 96 1017.2
20260830122512 73 251 0.0 0.0 0.00 0.00 0.00 96 1017.2
20260830122012 73 251 0.0 0.0 0.00 0.00 0.00 95 1017.2
20260830121512 73 251 0.0 0.0 0.00 0.00 0.00 95 1017.1
20260830121004 73 251 0.0 0.0 0.00 0.00 0.00 95 1017.2
20260830120504 73 251 0.0 0.0 0.00 0.00 0.00 95 1017.1
20260830120011 73 251 0.0 0.0 0.00 0.00 0.00 95 1017.0
20260830115504 73 251 0.0 0.0 0.00 0.00 0.00 95 1017.0
20260830115010 73 251 0.0 0.0 0.00 0.00 0.00 95 1017.0
20260830114509 74 251 0.0 0.0 0.00 0.00 0.00 95 1017.0
20260830114006 74 251 0.0 0.0 0.00 0.00 0.00 95 1017.0
20260830113505 74 251 0.0 0.0 0.00 0.00 0.00 95 1016.9
20260830113006 73 251 0.0 0.0 0.00 0.00 0.00 95 1016.9
20260830112502 74 251 0.0 0.0 0.00 0.00 0.00 95 1016.8
20260830112006 74 250 0.0 0.0 0.00 0.00 0.00 95 1016.7
20260830111504 74 251 0.0 0.0 0.00 0.00 0.00 95 1016.7
20260830111010 74 251 0.0 0.0 0.00 0.00 0.00 95 1016.7
20260830110505 74 251 0.0 0.0 0.00 0.00 0.00 95 1016.6
20260830110004 74 251 0.0 0.0 0.00 0.00 0.00 95 1016.7
20260830105508 74 250 0.0 0.0 0.00 0.00 0.00 95 1016.6
20260830105003 74 251 0.0 0.0 0.00 0.00 0.00 95 1016.5
20260830104512 74 251 0.0 0.0 0.00 0.00 0.00 95 1016.4
20260830104011 74 251 0.0 0.0 0.00 0.00 0.00 95 1016.4
20260830103504 74 251 0.0 0.0 0.00 0.00 0.00 95 1016.3
20260830103017 74 250 0.0 0.0 0.00 0.00 0.00 94 1016.4
20260830102507 74 250 0.0 0.0 0.00 0.00 0.00 94 1016.3
20260830102001 75 251 0.0 0.0 0.00 0.00 0.00 95 1016.3
20260830101516 74 251 0.0 0.0 0.00 0.00 0.00 94 1016.5
20260830101004 74 251 0.0 0.0 0.00 0.00 0.00 94 1016.3
20260830100502 75 250 0.0 0.0 0.00 0.00 0.00 94 1016.3
20260830100013 75 251 0.0 0.0 0.00 0.00 0.00 94 1016.3
20260830095503 75 251 0.0 0.0 0.00 0.00 0.00 94 1016.2
20260830095012 75 251 0.0 0.0 0.00 0.00 0.00 94 1016.2
20260830094512 75 251 0.0 0.0 0.00 0.00 0.00 94 1016.2
20260830094005 75 251 0.0 0.0 0.00 0.00 0.00 94 1016.2
20260830093509 75 251 0.0 0.0 0.00 0.00 0.00 94 1016.2
20260830093007 75 251 0.0 0.0 0.00 0.00 0.00 94 1016.1
20260830092512 75 250 0.0 0.0 0.00 0.00 0.00 94 1016.2
20260830092006 75 251 0.0 0.0 0.00 0.00 0.00 94 1016.1
20260830091506 76 251 0.0 0.0 0.00 0.00 0.00 94 1016.1
20260830091010 75 251 0.0 0.0 0.00 0.00 0.00 94 1016.1
20260830090506 76 251 0.0 0.0 0.00 0.00 0.00 94 1016.1
20260830090004 76 251 0.0 0.0 0.00 0.00 0.00 94 1016.2
20260830085511 76 251 0.0 0.0 0.00 0.00 0.00 94 1016.1
20260830085003 76 251 0.0 0.0 0.00 0.00 0.00 94 1016.1
20260830084526 76 250 0.0 0.0 0.00 0.00 0.00 94 1016.1
20260830084008 76 251 0.0 0.0 0.00 0.00 0.00 94 1016.1
20260830083503 76 251 0.0 0.0 0.00 0.00 0.00 94 1016.1
20260830083035 76 251 0.0 0.0 0.00 0.00 0.00 93 1016.1
20260830082505 76 251 0.0 0.0 0.00 0.00 0.00 93 1016.2
20260830082003 76 251 0.0 0.0 0.00 0.00 0.00 93 1016.2
20260830081516 76 251 0.0 0.0 0.00 0.00 0.00 93 1016.3
20260830081003 76 251 0.0 0.0 0.00 0.00 0.00 93 1016.2
20260830080513 76 251 0.0 0.0 0.00 0.00 0.00 93 1016.3
20260830080014 76 251 0.0 0.0 0.00 0.00 0.00 93 1016.3
20260830075504 76 251 0.0 0.0 0.00 0.00 0.00 92 1016.3
20260830075012 76 251 0.0 0.0 0.00 0.00 0.00 92 1016.4
20260830074510 76 251 0.0 0.0 0.00 0.00 0.00 92 1016.3
20260830074003 76 251 0.0 0.0 0.00 0.00 0.00 92 1016.4
20260830073509 76 251 0.0 0.0 0.00 0.00 0.00 91 1016.4
20260830073008 76 251 0.0 0.0 0.00 0.00 0.00 91 1016.5
20260830072519 77 251 0.0 0.0 0.00 0.00 0.00 91 1016.5
20260830072007 77 251 0.0 0.0 0.00 0.00 0.00 91 1016.5
20260830071507 77 251 0.0 0.0 0.00 0.00 0.00 91 1016.5
20260830071009 77 251 0.0 0.0 0.00 0.00 0.00 91 1016.5
20260830070503 77 251 0.0 0.0 0.00 0.00 0.00 91 1016.4
20260830070027 77 251 0.0 0.0 0.00 0.00 0.00 91 1016.4
20260830065507 77 251 0.0 0.0 0.00 0.00 0.00 90 1016.4
20260830065004 77 251 0.0 0.0 0.00 0.00 0.00 90 1016.5
20260830064527 77 251 0.0 0.0 0.00 0.00 0.00 90 1016.5
20260830064008 77 251 0.0 0.0 0.00 0.00 0.00 90 1016.5
20260830063505 77 250 0.0 0.0 0.00 0.00 0.00 89 1016.4
20260830063023 77 251 0.0 0.0 0.00 0.00 0.00 89 1016.4
20260830062507 78 251 0.0 0.0 0.00 0.00 0.00 89 1016.4
20260830062016 78 251 0.0 0.0 0.00 0.00 0.00 89 1016.4
20260830061525 78 251 0.0 0.0 0.00 0.00 0.00 88 1016.5
20260830061017 78 251 0.0 0.0 0.00 0.00 0.00 88 1016.4
20260830060512 78 251 0.0 0.0 0.00 0.00 0.00 88 1016.5
20260830060015 78 251 0.0 0.0 0.00 0.00 0.00 87 1016.4
20260830055515 78 251 0.0 0.0 0.00 0.00 0.00 87 1016.4
20260830055013 79 251 0.0 0.0 0.00 0.00 0.00 86 1016.4
20260830054539 79 251 0.0 0.0 0.00 0.00 0.00 86 1016.4
20260830054015 79 251 0.0 0.0 0.00 0.00 0.00 85 1016.4
20260830053511 79 251 0.0 0.0 0.00 0.00 0.00 85 1016.4
20260830053032 80 251 0.0 0.0 0.00 0.00 0.00 84 1016.4
20260830052510 80 251 0.0 0.0 0.00 0.00 0.00 84 1016.4
20260830052009 80 251 0.0 0.0 0.00 0.00 0.00 84 1016.5
20260830051531 80 251 0.0 0.0 0.00 0.00 0.00 83 1016.4
20260830051011 81 251 0.0 0.0 0.00 0.00 0.00 83 1016.4
20260830050516 81 251 0.0 0.0 0.00 0.00 0.00 83 1016.5
20260830050029 81 251 0.0 0.0 0.00 0.00 0.00 83 1016.4
20260830045509 81 200 0.0 0.9 0.00 0.00 0.00 82 1016.5
20260830045015 81 146 0.0 0.9 0.00 0.00 0.00 82 1016.5
20260830044528 81 126 0.0 0.9 0.00 0.00 0.00 82 1016.4
20260830044019 81 212 0.0 0.9 0.00 0.00 0.00 82 1016.4
20260830043514 82 212 0.0 0.9 0.00 0.00 0.00 82 1016.4
20260830043024 82 207 0.0 0.0 0.00 0.00 0.00 82 1016.4
20260830042517 82 206 0.0 0.0 0.00 0.00 0.00 81 1016.4
20260830042014 82 207 0.0 0.0 0.00 0.00 0.00 80 1016.4
20260830041524 82 206 0.0 0.0 0.00 0.00 0.00 80 1016.5
20260830041015 82 207 0.0 0.0 0.00 0.00 0.00 80 1016.4
20260830040515 83 205 0.0 0.9 0.00 0.00 0.00 80 1016.4
20260830040030 83 221 0.0 0.9 0.00 0.00 0.00 79 1016.3
20260830035515 83 220 0.0 0.9 0.00 0.00 0.00 79 1016.3
20260830035012 83 220 0.0 0.9 0.00 0.00 0.00 78 1016.3
20260830034532 83 257 0.0 0.0 0.00 0.00 0.00 78 1016.2
20260830034016 84 257 0.0 0.0 0.00 0.00 0.00 77 1016.2
20260830033512 84 257 0.0 0.9 0.00 0.00 0.00 77 1016.2
20260830033030 84 255 0.0 0.9 0.00 0.00 0.00 77 1016.2
20260830032519 84 201 0.0 0.9 0.00 0.00 0.00 76 1016.2
20260830032016 84 220 0.0 1.7 0.00 0.00 0.00 76 1016.2
20260830031532 84 210 0.0 1.7 0.00 0.00 0.00 76 1016.2
20260830031015 84 198 0.0 0.9 0.00 0.00 0.00 76 1016.0
20260830030507 84 238 0.0 4.3 0.00 0.00 0.00 76 1016.0
20260830030005 84 235 0.0 4.3 0.00 0.00 0.00 76 1015.9
20260830025512 84 122 0.0 0.9 0.00 0.00 0.00 76 1015.9
20260830025004 84 197 0.0 0.9 0.00 0.00 0.00 76 1015.9
20260830024527 85 218 0.0 0.9 0.00 0.00 0.00 76 1015.8
20260830024012 85 214 0.0 0.0 0.00 0.00 0.00 75 1015.7
20260830023505 85 214 0.0 0.0 0.00 0.00 0.00 76 1015.6
20260830023027 85 207 0.0 0.0 0.00 0.00 0.00 75 1015.5
20260830022506 85 208 0.0 0.0 0.00 0.00 0.00 74 1015.2
20260830022004 85 208 0.0 0.9 0.00 0.00 0.00 74 1015.3
20260830021520 85 208 0.0 0.9 0.00 0.00 0.00 73 1015.2
20260830021008 85 248 0.0 0.9 0.00 0.00 0.00 74 1015.0
20260830020515 85 205 0.0 0.9 0.00 0.00 0.00 73 1015.0
20260830020020 85 225 0.0 0.9 0.00 0.00 0.00 73 1014.9
20260830015503 85 212 0.0 0.0 0.00 0.00 0.00 72 1014.9